| time (UTC) | temp F | wind direction | speed MPH | gust MPH | rain 1hr in | rain 24hr in | rain mn in | humidity % | barometer mb |
| 20260503231536 | 76 | 142 | 2.0 | 7.0 | 0.00 | 0.00 | 0.00 | 61 | 1017.7 |
| 20260503230035 | 77 | 151 | 3.0 | 7.0 | 0.00 | 0.00 | 0.00 | 57 | 1018.0 |
| 20260503224529 | 79 | 131 | 3.0 | 8.0 | 0.00 | 0.00 | 0.00 | 54 | 1018.0 |
| 20260503223027 | 80 | 147 | 3.0 | 8.0 | 0.00 | 0.00 | 0.00 | 51 | 1018.3 |
| 20260503221520 | 81 | 142 | 0.0 | 7.0 | 0.00 | 0.00 | 0.00 | 51 | 1018.4 |
| 20260503220022 | 81 | 201 | 1.0 | 7.0 | 0.00 | 0.00 | 0.00 | 50 | 1018.3 |
| 20260503214527 | 81 | 205 | 4.0 | 11.0 | 0.00 | 0.00 | 0.00 | 47 | 1018.6 |
| 20260503213032 | 80 | 198 | 4.0 | 10.0 | 0.00 | 0.00 | 0.00 | 52 | 1018.7 |
| 20260503211513 | 81 | 161 | 2.0 | 6.0 | 0.00 | 0.00 | 0.00 | 49 | 1018.9 |
| 20260503210020 | 81 | 138 | 2.0 | 5.0 | 0.00 | 0.00 | 0.00 | 50 | 1019.1 |
| 20260503204514 | 81 | 105 | 2.0 | 4.0 | 0.00 | 0.00 | 0.00 | 47 | 1019.2 |
| 20260503203034 | 82 | 196 | 1.0 | 8.0 | 0.00 | 0.00 | 0.00 | 50 | 1019.5 |
| 20260503201528 | 82 | 143 | 2.0 | 8.0 | 0.00 | 0.00 | 0.00 | 48 | 1019.8 |
| 20260503200017 | 81 | 126 | 1.0 | 5.0 | 0.00 | 0.00 | 0.00 | 51 | 1020.1 |
| 20260503194532 | 81 | 128 | 1.0 | 4.0 | 0.00 | 0.00 | 0.00 | 42 | 1020.3 |
| 20260503193025 | 81 | 196 | 2.0 | 7.0 | 0.00 | 0.00 | 0.00 | 48 | 1020.6 |
| 20260503191528 | 79 | 105 | 2.0 | 4.0 | 0.00 | 0.00 | 0.00 | 40 | 1020.8 |
| 20260503190029 | 79 | 123 | 2.0 | 6.0 | 0.00 | 0.00 | 0.00 | 42 | 1020.9 |
| 20260503184525 | 79 | 90 | 2.0 | 4.0 | 0.00 | 0.00 | 0.00 | 47 | 1021.0 |
| 20260503183033 | 80 | 185 | 1.0 | 10.0 | 0.00 | 0.00 | 0.00 | 39 | 1021.3 |
| 20260503181528 | 79 | 172 | 1.0 | 4.0 | 0.00 | 0.00 | 0.00 | 52 | 1021.4 |
| 20260503180029 | 79 | 182 | 2.0 | 3.0 | 0.00 | 0.00 | 0.00 | 52 | 1021.7 |
| 20260503174528 | 78 | 206 | 2.0 | 9.0 | 0.00 | 0.00 | 0.00 | 49 | 1022.0 |
| 20260503173017 | 78 | 181 | 1.0 | 4.0 | 0.00 | 0.00 | 0.00 | 51 | 1022.4 |
| 20260503171518 | 77 | 174 | 2.0 | 3.0 | 0.00 | 0.00 | 0.00 | 50 | 1022.4 |
| 20260503081516 | 56 | 14 | 0.0 | 0.0 | 0.00 | 0.00 | 0.00 | 92 | 1020.5 |
| 20260503071518 | 57 | 14 | 0.0 | 0.0 | 0.00 | 0.00 | 0.00 | 92 | 1020.4 |
| 20260503054516 | 58 | 14 | 0.0 | 0.0 | 0.00 | 0.00 | 0.00 | 90 | 1020.6 |
| 20260503053037 | 59 | 14 | 0.0 | 0.0 | 0.00 | 0.00 | 0.00 | 90 | 1020.4 |
| 20260503051512 | 59 | 14 | 0.0 | 0.0 | 0.00 | 0.00 | 0.00 | 90 | 1020.5 |
| 20260503050030 | 59 | 14 | 0.0 | 0.0 | 0.00 | 0.00 | 0.00 | 89 | 1020.4 |
| 20260503044512 | 59 | 14 | 0.0 | 0.0 | 0.00 | 0.00 | 0.00 | 89 | 1020.2 |
| 20260503043035 | 60 | 14 | 0.0 | 0.0 | 0.00 | 0.00 | 0.00 | 88 | 1020.1 |
| 20260503041532 | 60 | 14 | 0.0 | 0.0 | 0.00 | 0.00 | 0.00 | 88 | 1020.4 |
| 20260503040034 | 60 | 14 | 0.0 | 0.0 | 0.00 | 0.00 | 0.00 | 87 | 1020.1 |
| 20260503034520 | 60 | 14 | 0.0 | 0.0 | 0.00 | 0.02 | 0.00 | 85 | 1019.8 |
| 20260503033024 | 61 | 14 | 0.0 | 0.0 | 0.00 | 0.02 | 0.00 | 86 | 1019.7 |
| 20260503031523 | 61 | 14 | 0.0 | 0.0 | 0.00 | 0.02 | 0.00 | 85 | 1019.7 |
| 20260503030024 | 62 | 14 | 0.0 | 0.0 | 0.00 | 0.02 | 0.00 | 83 | 1019.7 |
| 20260503024529 | 62 | 14 | 0.0 | 1.0 | 0.00 | 0.05 | 0.00 | 82 | 1019.7 |
| 20260503023033 | 63 | 14 | 0.0 | 0.0 | 0.00 | 0.05 | 0.00 | 80 | 1019.4 |
| 20260503021528 | 63 | 14 | 0.0 | 0.0 | 0.00 | 0.05 | 0.00 | 80 | 1019.4 |
| 20260503020019 | 64 | 14 | 0.0 | 0.0 | 0.00 | 0.05 | 0.00 | 78 | 1019.1 |
| 20260503014523 | 65 | 14 | 0.0 | 0.0 | 0.00 | 0.11 | 0.00 | 75 | 1018.8 |
| 20260503013025 | 66 | 14 | 0.0 | 0.0 | 0.00 | 0.11 | 0.00 | 74 | 1018.7 |
| 20260503011550 | 67 | 14 | 0.0 | 0.0 | 0.00 | 0.11 | 0.00 | 74 | 1018.7 |
| 20260503010022 | 68 | 14 | 0.0 | 2.0 | 0.00 | 0.11 | 0.00 | 72 | 1018.5 |
| 20260503004546 | 69 | 14 | 1.0 | 4.0 | 0.00 | 0.26 | 0.00 | 64 | 1018.3 |
| 20260503003029 | 71 | 11 | 2.0 | 8.0 | 0.00 | 0.26 | 0.00 | 64 | 1018.1 |
| 20260503001519 | 72 | 24 | 3.0 | 8.0 | 0.00 | 0.26 | 0.00 | 61 | 1018.0 |
| 20260503000012 | 73 | 44 | 3.0 | 7.0 | 0.00 | 0.26 | 0.00 | 57 | 1017.9 |
| 20260502234541 | 73 | 15 | 2.0 | 6.0 | 0.00 | 0.43 | 0.00 | 61 | 1017.8 |
| 20260502233017 | 74 | 348 | 4.0 | 9.0 | 0.00 | 0.43 | 0.00 | 50 | 1017.7 |